Tracking 19562 objects as of 23-Mar-2019
HD Live streaming from Space Station
objects crossing your sky now

ESSA 6 (TOS-D)

Track ESSA 6 (TOS-D) now!
10-day predictions
ESSA 6 (TOS-D) is classified as:


NORAD ID: 3035
Int'l Code: 1967-114A
Perigee: 1,415.7 km
Apogee: 1,492.4 km
Inclination: 102.3 °
Period: 114.8 minutes
Semi major axis: 7825 km
RCS: 0.8501 m2 (medium)
Launch date: November 10, 1967
Source: United States (US)
Launch site: AIR FORCE WESTERN TEST RANGE (AFWTR)
aabbcc
Your satellite tracking list
Your tracking list is empty




NASA's NSSDC Master Catalog

Two Line Element Set (TLE):
1  3035U 67114A   19081.90918000 -.00000053 +00000-0 -29838-4 0  9990
2  3035 102.2543 094.5484 0048977 107.0988 313.6910 12.54218359351228
Source of the keplerian elements: AFSPC